Miscellaneous Local Product
Issued by NWS Hastings, NE

Home | Current Version | Previous Version | Text Only | Print | Product List | Glossary On
Versions: 1 2 3 4 5 6 7 8 9 10 11 12 13 14 15 16 17 18 19 20 21 22 23 24 25 26 27 28 29 30 31 32 33 34 35 36 37 38 39 40 41 42 43 44 45 46 47 48 49 50
000
AXUS43 KGID 071802
MISGRI

GID CWA HOURLY WEATHER ROUNDUP
NATIONAL WEATHER SERVICE HASTINGS NE
100 PM CDT TUE JUL 07 2015

NOTE: "FAIR" INDICATES FEW OR NO CLOUDS BELOW 12,000 FEET WITH NO
SIGNIFICANT WEATHER AND/OR OBSTRUCTIONS TO VISIBILITY.

...SOUTH CENTRAL NEBRASKA...

CITY           SKY/WX    TMP DP  RH WIND       PRES   REMARKS
GRAND ISLAND   MOSUNNY   68  54  60 NE9       30.19F
HASTINGS       MOSUNNY   69  55  60 NE12G20   30.18F
KEARNEY        MOSUNNY   70  54  56 NE12      30.18F
ORD            PTSUNNY   72  53  51 NE6       30.17F
YORK           SUNNY     66  54  63 N14G21    30.18S
AURORA         MOSUNNY   68  54  60 NE13      30.18F
LEXINGTON      SUNNY     72  53  51 E8        30.18F
HOLDREGE       MOSUNNY   69  53  57 NE8G16    30.19F
HEBRON         SUNNY     69  49  48 NE12G21   30.16F

...NEBRASKA PANHANDLE...

CITY           SKY/WX    TMP DP  RH WIND       PRES   REMARKS
CHADRON        CLOUDY    71  55  56 S15       30.13F
ALLIANCE       CLOUDY    64  54  69 S15       30.18F
SCOTTSBLUFF    CLOUDY    65  53  65 SE12      30.17F HAZE
SIDNEY         PTSUNNY   72  50  45 S17G24    30.20F

...WESTERN AND NORTH CENTRAL NEBRASKA...

CITY           SKY/WX    TMP DP  RH WIND       PRES   REMARKS
VALENTINE      PTSUNNY   72  54  53 S9        30.17F
AINSWORTH      SUNNY     71  56  58 SE7       30.18F
ONEILL         SUNNY     66  53  63 E6        30.21F
BROKEN BOW     PTSUNNY   72  55  55 SE7       30.18F
IMPERIAL       SUNNY     74  47  38 E12       30.18F
NORTH PLATTE   SUNNY     72  49  44 SE9       30.18F
MCCOOK         SUNNY     73  50  44 MISG      30.18F HAZE

...EASTERN NEBRASKA...

CITY           SKY/WX    TMP DP  RH WIND       PRES   REMARKS
NORFOLK        SUNNY     70  53  54 N12G18    30.18F
SO SIOUX CITY  SUNNY     69  49  48 N10       30.17F
TEKAMAH        SUNNY     71  49  45 N9G18     30.16S
OMAHA EPPLEY   MOSUNNY   69  51  52 NE9       30.14F
OFFUTT AFB     SUNNY     69  51  54 N10       30.14S
MILLARD        SUNNY     68  48  49 MISG      30.15F
LINCOLN        SUNNY     71  50  47 NE14G22   30.16F
FALLS CITY     MOSUNNY   70  53  54 N14G20    30.12S

...NORTHERN KANSAS...

CITY           SKY/WX    TMP DP  RH WIND       PRES   REMARKS
GOODLAND       SUNNY     72  44  36 E15G22    30.19F
HILL CITY      SUNNY     77  48  35 NE15G21   30.17F HAZE
NORTON         CLEAR     73  43  33 NE7G16    30.16F
PHILLIPSBURG   SUNNY     79  48  34 NE13      30.16F
SMITH CENTER   SUNNY     72  52  49 NE14G21   30.16F
HAYS           MOSUNNY   73  48  40 NE14G23   30.15F
RUSSELL        MOSUNNY   74  50  42 NE16G23   30.13F
CONCORDIA      MOSUNNY   70  53  54 NE15G22   30.15F
SALINA         PTSUNNY   75  50  41 NE12G21   30.13S
TOPEKA         PTSUNNY   70  59  68 N8        30.10S



USA.gov is the U.S. government's official web portal to all federal, state and local government web resources and services.